Weather History for Burlington, IA

Change the Weather History Date:

Tuesday, September 17, 2013

  Actual Average Record
Temperature  
Mean Temperature 61 °F 67 °F  
Max Temperature 69 °F 78 °F 96 °F (1927)
Min Temperature 52 °F 56 °F 40 °F (1943)
Degree Days  
Heating Degree Days 4 2  
Month to date heating degree days 16 17  
Since 1 July heating degree days 27 21  
Cooling Degree Days 0 4  
Month to date cooling degree days 137 104  
Year to date cooling degree days 1038 1147  
Growing Degree Days 10 (Base 50)    
Moisture  
Dew Point 56 °F    
Average Humidity 79    
Maximum Humidity 89    
Minimum Humidity 68    
Precipitation  
Precipitation 0.00 in 0.12 in 0.69 in (1964)
Month to date precipitation 0.43 2.09  
Year to date precipitation 27.49 29.34  
Sea Level Pressure  
Sea Level Pressure 30.17 in    
Wind  
Wind Speed 7 mph (SE)    
Max Wind Speed 12 mph    
Max Gust Speed 16 mph    
Visibility 10 miles    
Events      
T = Trace of Precipitation, MM = Missing Value Source: NWS Daily Summary

Daily Weather History Graph

Daily Weather History Graph

Search for Another Location

Airport:

Trip Planner

Search our weather history database for the weather conditions in past years. The results will help you decide how hot, cold, wet, or windy it might be!

Date:

Astronomy

Sep. 17, 2013 Rise Set
Actual Time 6:47 AM CDT 7:09 PM CDT
Civil Twilight 6:19 AM CDT 7:37 PM CDT
Nautical Twilight 5:47 AM CDT 8:09 PM CDT
Astronomical Twilight 5:14 AM CDT 8:42 PM CDT
Moon 5:57 PM CDT (9/17) 4:41 AM CDT (9/17)
Length of Visible Light 13h 17m
Length of Day
12h 22m
Waxing Gibbous, 96% of the Moon is Illuminated
Sep 17
Waxing Gibbous
Sep 19
Full
Sep 26
Last Quarter
Oct 4
New
Oct 11
First Quarter

Hourly Weather History & Observations

Time (CDT) Temp. Dew Point Humidity Pressure Visibility Wind Dir Wind Speed Gust Speed Precip Events Conditions
12:53 AM 55.0 °F 48.0 °F 77% 30.30 in 10.0 mi ESE 6.9 mph - N/A   Clear
1:53 AM 53.1 °F 48.0 °F 83% 30.30 in 10.0 mi ESE 6.9 mph - N/A   Clear
2:53 AM 52.0 °F 48.0 °F 86% 30.28 in 10.0 mi East 8.1 mph - N/A   Clear
3:53 AM 52.0 °F 48.0 °F 86% 30.27 in 10.0 mi ESE 6.9 mph - N/A   Partly Cloudy
4:53 AM 52.0 °F 48.9 °F 89% 30.25 in 10.0 mi East 5.8 mph - N/A   Partly Cloudy
5:53 AM 52.0 °F 48.9 °F 89% 30.25 in 10.0 mi ESE 5.8 mph - N/A   Clear
6:53 AM 53.1 °F 50.0 °F 89% 30.25 in 10.0 mi ESE 3.5 mph - N/A   Mostly Cloudy
7:53 AM 53.1 °F 50.0 °F 89% 30.26 in 10.0 mi East 4.6 mph - N/A   Clear
8:53 AM 55.9 °F 52.0 °F 87% 30.25 in 10.0 mi ESE 6.9 mph - N/A   Partly Cloudy
9:53 AM 59.0 °F 53.1 °F 81% 30.24 in 10.0 mi ESE 6.9 mph - N/A   Scattered Clouds
10:53 AM 63.0 °F 54.0 °F 72% 30.23 in 10.0 mi SSE 8.1 mph - N/A   Partly Cloudy
11:53 AM 64.9 °F 55.0 °F 70% 30.22 in 10.0 mi SSE 5.8 mph - N/A   Overcast
12:53 PM 66.9 °F 57.0 °F 70% 30.19 in 10.0 mi SE 4.6 mph - N/A   Overcast
1:53 PM 68.0 °F 57.9 °F 70% 30.17 in 10.0 mi SSE 4.6 mph - N/A   Overcast
2:53 PM 69.1 °F 59.0 °F 70% 30.14 in 10.0 mi SSE 6.9 mph - N/A   Overcast
3:51 PM 69.8 °F 60.8 °F 73% 30.13 in 10.0 mi SSE 10.4 mph - N/A   Overcast
3:53 PM 69.1 °F 60.1 °F 73% 30.12 in 10.0 mi SSE 8.1 mph - N/A   Overcast
4:20 PM 68.0 °F 60.8 °F 78% 30.12 in 10.0 mi South 10.4 mph - N/A   Overcast
4:35 PM 68.0 °F 60.8 °F 78% 30.12 in 10.0 mi South 9.2 mph - N/A   Overcast
4:53 PM 68.0 °F 60.1 °F 76% 30.12 in 10.0 mi South 6.9 mph - N/A   Overcast
5:00 PM 68.0 °F 60.8 °F 78% 30.12 in 10.0 mi SSE 6.9 mph - N/A   Overcast
5:53 PM 68.0 °F 60.1 °F 76% 30.10 in 10.0 mi SSE 8.1 mph - N/A   Unknown
6:16 PM 68.0 °F 60.8 °F 78% 30.10 in 10.0 mi SSE 9.2 mph - N/A   Overcast
6:53 PM 68.0 °F 59.0 °F 73% 30.09 in 10.0 mi SSE 9.2 mph - N/A   Overcast
7:53 PM 66.9 °F 57.9 °F 73% 30.08 in 10.0 mi SE 8.1 mph - N/A   Overcast
8:53 PM 66.9 °F 57.9 °F 73% 30.07 in 10.0 mi SSE 5.8 mph - N/A   Overcast
9:16 PM 66.2 °F 59.0 °F 78% 30.07 in 10.0 mi SE 6.9 mph - N/A   Overcast
9:53 PM 66.9 °F 59.0 °F 76% 30.08 in 10.0 mi SSE 6.9 mph - N/A   Overcast
10:53 PM 66.9 °F 60.1 °F 79% 30.08 in 10.0 mi South 8.1 mph - N/A   Overcast
11:31 PM 64.4 °F 60.8 °F 88% 30.08 in 10.0 mi SSE 4.6 mph - N/A   Scattered Clouds
11:53 PM 64.9 °F 60.1 °F 84% 30.07 in 9.0 mi SSE 5.8 mph - N/A   Mostly Cloudy